TimeEDT,TemperatureF,Dew PointF,Humidity,Sea Level PressureIn,VisibilityMPH,Wind Direction,Wind SpeedMPH,Gust SpeedMPH,PrecipitationIn,Events,Conditions,WindDirDegrees,DateUTC
12:14 AM,41.5,40.5,96,29.35,4.0,North,16.1,26.5,N/A,Rain,Heavy Rain,350,2012-10-15 04:14:00
12:34 AM,41.5,40.3,95,29.35,7.0,NNW,21.9,31.1,N/A,,Drizzle,340,2012-10-15 04:34:00
1:14 AM,41.4,39.7,94,29.37,10.0,NNW,17.3,27.6,N/A,,Overcast,330,2012-10-15 05:14:00
1:54 AM,41.2,39.6,94,29.40,7.0,NNW,12.7,25.3,N/A,Rain,Light Rain,330,2012-10-15 05:54:00
2:14 AM,41.0,39.4,94,29.40,10.0,NNW,15.0,26.5,N/A,Rain,Light Rain,330,2012-10-15 06:14:00
2:34 AM,40.5,38.7,93,29.41,7.0,NNW,16.1,28.8,N/A,Rain,Light Rain,330,2012-10-15 06:34:00
2:54 AM,40.1,38.3,93,29.42,10.0,NNW,19.6,27.6,N/A,Rain,Light Rain,340,2012-10-15 06:54:00
3:14 AM,40.1,37.9,92,29.42,10.0,NNW,13.8,29.9,N/A,Rain,Light Rain,340,2012-10-15 07:14:00
3:34 AM,39.4,37.6,93,29.44,10.0,NNW,16.1,28.8,N/A,Rain,Light Rain,340,2012-10-15 07:34:00
3:54 AM,39.4,37.4,93,29.44,10.0,NNW,19.6,26.5,N/A,Rain,Light Rain,340,2012-10-15 07:54:00
4:14 AM,39.6,37.6,93,29.46,10.0,NNW,16.1,24.2,N/A,Rain,Light Rain,330,2012-10-15 08:14:00
4:34 AM,40.1,37.9,92,29.47,7.0,NNW,13.8,24.2,N/A,Rain,Light Rain,330,2012-10-15 08:34:00
4:54 AM,40.3,38.5,93,29.49,7.0,NNW,15.0,25.3,N/A,Rain,Light Rain,330,2012-10-15 08:54:00
5:14 AM,40.5,38.8,94,29.50,7.0,NW,10.4,18.4,N/A,Rain,Light Rain,320,2012-10-15 09:14:00
5:54 AM,41.0,39.6,95,29.52,7.0,NW,13.8,20.7,N/A,,Overcast,320,2012-10-15 09:54:00
6:14 AM,41.0,39.4,94,29.53,7.0,NW,15.0,23.0,N/A,Rain,Light Rain,320,2012-10-15 10:14:00
6:34 AM,41.0,39.2,93,29.54,10.0,NW,13.8,28.8,N/A,Rain,Light Rain,320,2012-10-15 10:34:00
6:54 AM,40.8,39.0,93,29.55,7.0,NNW,16.1,25.3,N/A,,Overcast,330,2012-10-15 10:54:00
7:14 AM,40.5,38.5,93,29.56,10.0,NNW,18.4,25.3,N/A,Rain,Light Rain,340,2012-10-15 11:14:00
7:34 AM,40.5,38.7,93,29.57,7.0,NNW,15.0,21.9,N/A,Rain,Light Rain,340,2012-10-15 11:34:00
8:14 AM,40.1,38.5,94,29.59,10.0,NW,15.0,23.0,N/A,Rain,Light Rain,320,2012-10-15 12:14:00
8:34 AM,40.1,38.5,94,29.61,7.0,NW,17.3,24.2,N/A,Rain,Light Rain,320,2012-10-15 12:34:00
8:54 AM,40.3,38.5,93,29.62,10.0,NW,13.8,24.2,N/A,Rain,Light Rain,320,2012-10-15 12:54:00
9:15 AM,40.5,38.7,93,29.63,10.0,NW,12.7,21.9,N/A,,Overcast,310,2012-10-15 13:15:00
9:34 AM,40.6,38.8,93,29.65,10.0,NW,15.0,21.9,N/A,,Overcast,310,2012-10-15 13:34:00
9:54 AM,41.0,39.4,94,29.65,10.0,NW,16.1,25.3,N/A,,Overcast,310,2012-10-15 13:54:00
10:14 AM,41.4,39.6,93,29.67,10.0,NNW,15.0,19.6,N/A,,Overcast,330,2012-10-15 14:14:00
10:34 AM,41.4,39.4,93,29.68,10.0,NW,13.8,23.0,N/A,,Overcast,320,2012-10-15 14:34:00
10:54 AM,41.5,39.4,92,29.69,10.0,NW,15.0,28.8,N/A,,Overcast,320,2012-10-15 14:54:00
11:14 AM,41.5,38.8,90,29.70,10.0,NW,17.3,25.3,N/A,,Overcast,320,2012-10-15 15:14:00
11:34 AM,41.9,38.5,88,29.70,10.0,NNW,13.8,28.8,N/A,,Overcast,330,2012-10-15 15:34:00
11:54 AM,42.1,38.3,86,29.71,10.0,NW,12.7,23.0,N/A,,Overcast,320,2012-10-15 15:54:00
12:14 PM,42.8,38.5,85,29.72,10.0,NW,13.8,26.5,N/A,,Overcast,320,2012-10-15 16:14:00
12:34 PM,42.8,37.9,83,29.72,10.0,NW,13.8,21.9,N/A,,Overcast,320,2012-10-15 16:34:00
12:54 PM,43.2,37.9,82,29.73,10.0,NW,13.8,23.0,N/A,,Overcast,320,2012-10-15 16:54:00
1:14 PM,43.7,37.8,80,29.74,10.0,NNW,12.7,23.0,N/A,,Overcast,330,2012-10-15 17:14:00
1:34 PM,43.7,37.4,78,29.75,10.0,NW,13.8,23.0,N/A,,Overcast,320,2012-10-15 17:34:00
2:14 PM,43.5,36.7,77,29.75,10.0,NW,15.0,23.0,N/A,,Overcast,320,2012-10-15 18:14:00
2:34 PM,44.1,37.0,76,29.75,10.0,NNW,10.4,18.4,N/A,,Overcast,330,2012-10-15 18:34:00
2:54 PM,43.7,35.2,72,29.76,10.0,NW,16.1,24.2,N/A,,Overcast,320,2012-10-15 18:54:00
3:14 PM,43.3,34.3,71,29.77,10.0,NNW,16.1,25.3,N/A,,Overcast,330,2012-10-15 19:14:00
3:34 PM,43.0,34.2,71,29.78,10.0,NW,16.1,24.2,N/A,,Overcast,310,2012-10-15 19:34:00
3:54 PM,43.0,34.0,71,29.79,10.0,NW,15.0,23.0,N/A,,Overcast,320,2012-10-15 19:54:00
4:14 PM,43.0,33.8,70,29.80,10.0,NW,13.8,20.7,N/A,,Overcast,310,2012-10-15 20:14:00
4:34 PM,42.8,33.3,69,29.80,10.0,NNW,12.7,19.6,N/A,,Overcast,330,2012-10-15 20:34:00
4:54 PM,43.2,32.9,67,29.80,10.0,NNW,9.2,17.3,N/A,,Overcast,330,2012-10-15 20:54:00
5:14 PM,43.2,33.3,68,29.81,10.0,WNW,11.5,16.1,N/A,,Overcast,300,2012-10-15 21:14:00
5:34 PM,43.0,32.9,68,29.82,10.0,NW,10.4,17.3,N/A,,Overcast,320,2012-10-15 21:34:00
5:53 PM,43.0,32.4,66,29.83,10.0,NW,11.5,18.4,N/A,,Overcast,320,2012-10-15 21:53:00
6:14 PM,42.8,32.0,66,29.85,10.0,NNW,9.2,18.4,N/A,,Overcast,330,2012-10-15 22:14:00
6:34 PM,42.4,32.0,67,29.85,10.0,NW,9.2,-,N/A,,Overcast,310,2012-10-15 22:34:00
7:14 PM,41.9,32.4,69,29.87,10.0,NW,5.8,-,N/A,,Overcast,310,2012-10-15 23:14:00
7:34 PM,41.9,32.0,68,29.87,10.0,NW,8.1,-,N/A,,Overcast,320,2012-10-15 23:34:00
7:54 PM,41.5,32.0,69,29.87,10.0,NW,8.1,-,N/A,,Overcast,320,2012-10-15 23:54:00
8:14 PM,41.4,31.8,69,29.87,10.0,NW,6.9,-,N/A,,Overcast,310,2012-10-16 00:14:00
8:34 PM,41.0,32.2,71,29.88,10.0,NW,6.9,-,N/A,,Overcast,310,2012-10-16 00:34:00
8:54 PM,41.0,32.2,71,29.88,10.0,NW,8.1,-,N/A,,Overcast,310,2012-10-16 00:54:00
9:14 PM,41.0,32.0,70,29.88,10.0,WNW,9.2,-,N/A,,Overcast,290,2012-10-16 01:14:00
9:34 PM,40.5,31.8,71,29.88,10.0,WNW,9.2,-,N/A,,Overcast,300,2012-10-16 01:34:00
9:54 PM,40.5,31.8,71,29.89,10.0,West,5.8,9.2,N/A,,Overcast,280,2012-10-16 01:54:00
10:14 PM,40.3,31.8,72,29.90,10.0,West,9.2,-,N/A,,Overcast,280,2012-10-16 02:14:00
10:34 PM,40.6,32.0,71,29.90,10.0,West,10.4,-,N/A,,Overcast,280,2012-10-16 02:34:00
10:54 PM,40.1,32.0,73,29.90,10.0,West,8.1,-,N/A,,Overcast,280,2012-10-16 02:54:00
11:14 PM,40.1,32.0,73,29.90,10.0,West,8.1,-,N/A,,Overcast,270,2012-10-16 03:14:00
11:34 PM,40.1,32.0,73,29.90,10.0,West,10.4,-,N/A,,Overcast,270,2012-10-16 03:34:00
11:54 PM,40.5,32.0,72,29.90,10.0,West,10.4,-,N/A,,Overcast,280,2012-10-16 03:54:00